This is the latest recevied weather packets stored in our database for station/object SP2FH-13. If no packets are shown the sender has not sent any weather packets the latest 10 day(s).
| Time | Temp. | Humidity | Pressure | Rain* | Wind** | Luminosity | Snow |
|---|---|---|---|---|---|---|---|
| 1777962823 | 18.89° C | 63% | 1000 hPa | - | - | 348 W/m² | - |
| 1777962522 | 18.33° C | 66% | 1000.1 hPa | - | - | 221 W/m² | - |
| 1777961920 | 18.33° C | 67% | 1000.2 hPa | - | - | 238 W/m² | - |
| 1777961618 | 18.33° C | 65% | 1000.2 hPa | - | - | 236 W/m² | - |
| 1777961318 | 17.78° C | 67% | 1000.2 hPa | - | - | 289 W/m² | - |
| 1777960716 | 16.67° C | 70% | 1000.3 hPa | - | - | 162 W/m² | - |
| 1777960415 | 16.67° C | 72% | 1000.4 hPa | - | - | 183 W/m² | - |
| 1777960113 | 16.67° C | 72% | 1000.4 hPa | - | - | 121 W/m² | - |
| 1777959812 | 16.67° C | 70% | 1000.4 hPa | - | - | 112 W/m² | - |
| 1777959511 | 16.67° C | 72% | 1000.4 hPa | - | - | 177 W/m² | - |
| 1777959210 | 16.11° C | 73% | 1000.3 hPa | - | - | 185 W/m² | - |
| 1777958909 | 16.67° C | 72% | 1000.4 hPa | - | - | 132 W/m² | - |
| 1777958607 | 16.67° C | 72% | 1000.5 hPa | - | - | 145 W/m² | - |
| 1777958306 | 16.67° C | 73% | 1000.4 hPa | - | - | 182 W/m² | - |
| 1777958005 | 16.67° C | 72% | 1000.3 hPa | - | - | 168 W/m² | - |
| 1777957704 | 16.67° C | 73% | 1000.4 hPa | - | - | 168 W/m² | - |
| 1777957403 | 16.11° C | 74% | 1000.3 hPa | - | - | 178 W/m² | - |
| 1777957102 | 15.56° C | 76% | 1000.3 hPa | - | - | 120 W/m² | - |
| 1777956800 | 15.56° C | 78% | 1000.2 hPa | - | - | 108 W/m² | - |
| 1777956499 | 15° C | 76% | 1000.2 hPa | - | - | 95 W/m² | - |
| 1777956198 | 15° C | 79% | 1000.2 hPa | - | - | 83 W/m² | - |
| 1777955897 | 15° C | 77% | 1000.3 hPa | - | - | 79 W/m² | - |
| 1777955596 | 14.44° C | 79% | 1000.3 hPa | - | - | 66 W/m² | - |
| 1777955295 | 13.89° C | 82% | 1000.2 hPa | - | - | 59 W/m² | - |
| 1777954994 | 13.33° C | 83% | 1000.3 hPa | - | - | 54 W/m² | - |
* Rain since midnight (hover to see other rain measurements)
** Current wind speed in m/s (hover to see current wind gust speed)